Madison, MN

5:32 AM CDT on August 19, 2017 (GMT -0500)
Madison-Lac Qui Parle County

Weather History for KDXX - November, 2012

Change the Weather History Date:

Thursday, November 8, 2012

  Actual Average (KAQP) Record (KAQP)
Temperature  
Mean Temperature 43 °F -  
Max Temperature 53 °F 41 °F 82 °F (1999)
Min Temperature 33 °F 24 °F 1 °F (2003)
Degree Days  
Heating Degree Days 22    
Moisture  
Dew Point 33 °F    
Average Humidity 75    
Maximum Humidity 87    
Minimum Humidity 47    
Precipitation  
Precipitation 0.00 in - - ()
Sea Level Pressure  
Sea Level Pressure 29.93 in    
Wind  
Wind Speed 12 mph (NNE)    
Max Wind Speed 21 mph    
Max Gust Speed 26 mph    
Visibility 10 miles    
Events      
Averages and records for this station are not official NWS values.
T = Trace of Precipitation, MM = Missing Value Source: NWS Daily Summary

Daily Weather History Graph

Daily Weather History Graph

Search for Another Location

Airport or City:

Trip Planner

Search our weather history database for the weather conditions in past years. The results will help you decide how hot, cold, wet, or windy it might be!

Date:

Astronomy

Nov. 08, 2012 Rise Set
Actual Time 7:13 AM CST 5:02 PM CST
Civil Twilight 6:42 AM CST 5:34 PM CST
Nautical Twilight 6:07 AM CST 6:09 PM CST
Astronomical Twilight 5:32 AM CST 6:43 PM CST
Moon 12:54 AM CST (11/8) 1:58 PM CST (11/8)
Length of Visible Light 10h 51m
Length of Day
9h 49m
Waning Crescent, 32% of the Moon is Illuminated
Nov 8
Waning Crescent
Nov 13
New
Nov 20
First Quarter
Nov 28
Full
Dec 6
Last Quarter

Hourly Weather History & Observations

Time (CST) Temp. Windchill Dew Point Humidity Pressure Visibility Wind Dir Wind Speed Gust Speed Precip Events Conditions
12:14 AM 37.4 °F 27.8 °F 30.2 °F 75% 29.89 in 10.0 mi SSE 17.3 mph - N/A   Clear
12:33 AM 37.4 °F 27.5 °F 30.2 °F 75% 29.88 in 10.0 mi SSE 18.4 mph - N/A   Clear
1:14 AM 37.4 °F 28.5 °F 30.2 °F 75% 29.86 in 10.0 mi SSE 15.0 mph - N/A   Clear
1:33 AM 37.4 °F 27.8 °F 30.2 °F 75% 29.86 in 10.0 mi SSE 17.3 mph - N/A   Clear
1:54 AM 37.4 °F 27.8 °F 30.2 °F 75% 29.85 in 10.0 mi SSE 17.3 mph - N/A   Clear
2:14 AM 37.4 °F 27.8 °F 30.2 °F 75% 29.84 in 10.0 mi SE 17.3 mph - N/A   Clear
2:33 AM 37.4 °F 28.9 °F 30.2 °F 75% 29.84 in 10.0 mi SSE 13.8 mph - N/A   Clear
2:54 AM 35.6 °F 26.2 °F 30.2 °F 81% 29.83 in 10.0 mi SSE 15.0 mph - N/A   Clear
3:14 AM 37.4 °F 29.8 °F 30.2 °F 75% 29.83 in 10.0 mi SSE 11.5 mph - N/A   Clear
3:33 AM 35.6 °F 28.6 °F 30.2 °F 81% 29.84 in 10.0 mi SE 9.2 mph - N/A   Clear
3:54 AM 35.6 °F 28.0 °F 30.2 °F 81% 29.84 in 10.0 mi SE 10.4 mph - N/A   Clear
4:14 AM 33.8 °F 25.8 °F 30.2 °F 87% 29.83 in 10.0 mi SE 10.4 mph - N/A   Clear
4:33 AM 33.8 °F 26.4 °F 30.2 °F 87% 29.83 in 10.0 mi SE 9.2 mph - N/A   Clear
4:54 AM 33.8 °F 26.4 °F 30.2 °F 87% 29.83 in 10.0 mi SE 9.2 mph - N/A   Clear
5:14 AM 33.8 °F 27.0 °F 30.2 °F 87% 29.84 in 10.0 mi SE 8.1 mph - N/A   Clear
5:33 AM 35.6 °F 28.6 °F 30.2 °F 81% 29.83 in 10.0 mi SSE 9.2 mph - N/A   Clear
5:54 AM 35.6 °F 32.8 °F 30.2 °F 81% 29.85 in 10.0 mi SE 3.5 mph - N/A   Clear
6:14 AM 35.6 °F 32.8 °F 30.2 °F 81% 29.85 in 10.0 mi ESE 3.5 mph - N/A   Clear
6:33 AM 33.8 °F 29.6 °F 30.2 °F 87% 29.85 in 10.0 mi SE 4.6 mph - N/A   Clear
6:54 AM 33.8 °F 28.6 °F 30.2 °F 87% 29.86 in 10.0 mi SE 5.8 mph - N/A   Clear
7:13 AM 33.8 °F 28.6 °F 30.2 °F 87% 29.86 in 10.0 mi SE 5.8 mph - N/A   Clear
7:34 AM 33.8 °F 28.6 °F 30.2 °F 87% 29.87 in 10.0 mi SE 5.8 mph - N/A   Clear
7:53 AM 33.8 °F 30.8 °F 30.2 °F 87% 29.88 in 10.0 mi SE 3.5 mph - N/A   Clear
8:13 AM 35.6 °F 32.8 °F 30.2 °F 81% 29.88 in 10.0 mi SE 3.5 mph - N/A   Clear
8:34 AM 35.6 °F - 30.2 °F 81% 29.89 in 10.0 mi Calm Calm - N/A   Clear
8:53 AM 37.4 °F - 32.0 °F 81% 29.89 in 10.0 mi Calm Calm - N/A   Clear
9:13 AM 39.2 °F - 33.8 °F 81% 29.89 in 10.0 mi Calm Calm - N/A   Clear
9:34 AM 42.8 °F - 33.8 °F 70% 29.90 in 10.0 mi Calm Calm - N/A   Clear
9:53 AM 44.6 °F 42.2 °F 32.0 °F 61% 29.90 in 10.0 mi WSW 4.6 mph - N/A   Clear
10:13 AM 46.4 °F 43.5 °F 32.0 °F 57% 29.90 in 10.0 mi WNW 5.8 mph - N/A   Clear
10:34 AM 48.2 °F - 33.8 °F 58% 29.90 in 10.0 mi WNW 6.9 mph - N/A   Clear
10:54 AM 50.0 °F - 32.0 °F 50% 29.91 in 10.0 mi NNW 8.1 mph - N/A   Clear
11:13 AM 50.0 °F - 32.0 °F 50% 29.91 in 10.0 mi NNW 11.5 mph - N/A   Clear
11:34 AM 51.8 °F - 33.8 °F 50% 29.90 in 10.0 mi NNW 10.4 mph - N/A   Clear
11:53 AM 51.8 °F - 33.8 °F 50% 29.90 in 10.0 mi NNW 8.1 mph - N/A   Clear
12:14 PM 51.8 °F - 33.8 °F 50% 29.90 in 10.0 mi North 15.0 mph - N/A   Clear
12:34 PM 53.6 °F - 33.8 °F 47% 29.91 in 10.0 mi North 11.5 mph 19.6 mph N/A   Clear
12:53 PM 51.8 °F - 35.6 °F 54% 29.91 in 10.0 mi NNW 18.4 mph - N/A   Clear
1:14 PM 51.8 °F - 35.6 °F 54% 29.92 in 10.0 mi North 17.3 mph - N/A   Clear
1:34 PM 51.8 °F - 37.4 °F 58% 29.92 in 10.0 mi North 17.3 mph 23.0 mph N/A   Clear
1:53 PM 51.8 °F - 37.4 °F 58% 29.93 in 10.0 mi North 17.3 mph 24.2 mph N/A   Clear
2:14 PM 50.0 °F - 37.4 °F 62% 29.94 in 10.0 mi North 19.6 mph 24.2 mph N/A   Scattered Clouds
2:34 PM 48.2 °F - 37.4 °F 66% 29.96 in 10.0 mi NNW 20.7 mph - N/A   Scattered Clouds
2:53 PM 46.4 °F 39.5 °F 35.6 °F 66% 29.97 in 10.0 mi NNW 17.3 mph 25.3 mph N/A   Scattered Clouds
3:14 PM 44.6 °F 36.9 °F 35.6 °F 71% 29.98 in 10.0 mi North 18.4 mph 21.9 mph N/A   Mostly Cloudy
3:34 PM 44.6 °F 37.2 °F 35.6 °F 71% 29.98 in 10.0 mi North 17.3 mph 21.9 mph N/A   Mostly Cloudy
3:53 PM 42.8 °F 35.1 °F 35.6 °F 76% 29.98 in 10.0 mi North 16.1 mph 20.7 mph N/A   Mostly Cloudy
4:14 PM 42.8 °F 34.8 °F 35.6 °F 76% 29.99 in 10.0 mi North 17.3 mph 24.2 mph N/A   Overcast
4:34 PM 42.8 °F 34.8 °F 35.6 °F 76% 29.99 in 10.0 mi North 17.3 mph - N/A   Mostly Cloudy
4:53 PM 41.0 °F 31.6 °F 35.6 °F 81% 29.99 in 10.0 mi North 20.7 mph 25.3 mph N/A   Mostly Cloudy
5:14 PM 41.0 °F 31.9 °F 33.8 °F 76% 30.00 in 10.0 mi North 19.6 mph 26.5 mph N/A   Mostly Cloudy
5:34 PM 41.0 °F 33.1 °F 33.8 °F 76% 30.00 in 10.0 mi North 15.0 mph 23.0 mph N/A   Overcast
5:53 PM 41.0 °F 33.1 °F 33.8 °F 76% 30.01 in 10.0 mi North 15.0 mph - N/A   Mostly Cloudy
6:14 PM 41.0 °F 33.1 °F 33.8 °F 76% 30.01 in 10.0 mi North 15.0 mph - N/A   Mostly Cloudy
6:34 PM 39.2 °F 31.6 °F 33.8 °F 81% 30.02 in 10.0 mi North 12.7 mph - N/A   Scattered Clouds
6:53 PM 41.0 °F 33.5 °F 33.8 °F 76% 30.02 in 10.0 mi North 13.8 mph - N/A   Mostly Cloudy
7:14 PM 41.0 °F 33.5 °F 33.8 °F 76% 30.02 in 10.0 mi North 13.8 mph - N/A   Overcast
7:34 PM 39.2 °F 31.2 °F 33.8 °F 81% 30.02 in 10.0 mi North 13.8 mph - N/A   Overcast
7:53 PM 39.2 °F 33.0 °F 33.8 °F 81% 30.02 in 10.0 mi North 9.2 mph - N/A   Overcast
8:14 PM 39.2 °F 32.5 °F 33.8 °F 81% 30.02 in 10.0 mi North 10.4 mph - N/A   Overcast
8:34 PM 39.2 °F 32.5 °F 33.8 °F 81% 30.02 in 10.0 mi North 10.4 mph - N/A   Overcast
8:53 PM 39.2 °F 33.6 °F 33.8 °F 81% 30.03 in 10.0 mi North 8.1 mph - N/A   Overcast
9:14 PM 39.2 °F 33.6 °F 33.8 °F 81% 30.03 in 10.0 mi North 8.1 mph - N/A   Overcast
9:34 PM 39.2 °F 33.0 °F 33.8 °F 81% 30.04 in 10.0 mi North 9.2 mph - N/A   Mostly Cloudy
9:53 PM 39.2 °F 33.0 °F 33.8 °F 81% 30.03 in 10.0 mi North 9.2 mph - N/A   Mostly Cloudy
10:14 PM 39.2 °F 33.0 °F 33.8 °F 81% 30.03 in 10.0 mi North 9.2 mph - N/A   Mostly Cloudy
10:34 PM 39.2 °F 33.0 °F 33.8 °F 81% 30.02 in 10.0 mi North 9.2 mph - N/A   Scattered Clouds
10:53 PM 39.2 °F 33.6 °F 35.6 °F 87% 30.03 in 10.0 mi North 8.1 mph - N/A   Scattered Clouds
11:14 PM 39.2 °F 33.6 °F 33.8 °F 81% 30.02 in 10.0 mi North 8.1 mph - N/A   Scattered Clouds
11:34 PM 37.4 °F 32.1 °F 33.8 °F 87% 30.03 in 10.0 mi North 6.9 mph - N/A   Clear
11:53 PM 37.4 °F 31.4 °F 33.8 °F 87% 30.03 in 10.0 mi North 8.1 mph - N/A   Clear